Location: St. Louis
(38.6270°N, 90.1994°W)
Time: 09:03:23
(UTC-06:00)

Vanguard 2 Rocket - Pass Details

Date: 04 December 2021
Orbit: 553 x 3325 km, 32.9° (Epoch: 23 January)

Event Time Altitude Azimuth Distance (km) Brightness Sun altitude
Rises 17:56:45 0° 241° (WSW) 3,133 11.4 -14.8°
Reaches altitude 10° 17:58:48 10° 235° (SW) 2,399 10.3 -15.1°
Maximum altitude 18:04:11 47° 162° (SSE) 1,429 7.8 -16.1°
Enters shadow 18:10:12 20° 98° (E) 2,971 9.0 -17.3°
Drops below altitude 10° 18:13:18 10° 92° (E) 4,019 - -17.9°
Sets 18:17:45 0° 88° (E) 5,496 - -18.7°
